Location: Betzi
(47.2343°N, 9.5260°E)
Time: 22:56:21
(UTC+00:00)

ERBS - Pass Details

Date: 27 May 2022
Orbit: 360 x 377 km, 57.0° (Epoch: 26 June)

Event Time Altitude Azimuth Distance (km) Brightness Sun altitude
Exits shadow 00:54:59 46° 283° (WNW) 507 2.5 -18.2°
Maximum altitude 00:55:31 55° 326° (NW) 451 2.5 -18.1°
Drops below altitude 10° 00:58:32 10° 46° (NE) 1,378 5.9 -17.9°
Sets 01:00:37 0° 51° (NE) 2,238 7.1 -17.8°
